Lapse_Rate
9.5 9.6 9.5 9.5 9.6 9.5 9.3 9.4 9.6 9.5 9.6 9.6 9.7 9.3 8.7 8.7 6.9 6.9 6.2 6.9 7.2 6.8 6.7 6.4 6.2 5.9 7.1 7.6 7.7 8.1 7.0 7.5 8.7 8.8 8.7 8.2 7.7 7.4 6.5 6.6 6.9 6.5 6.5 7.1 7.4 7.4 7.3
9.6 9.5 9.5 9.5 9.4 9.4 9.5 9.4 9.3 9.4 9.5 9.6 9.6 9.6 9.2 9.2 8.0 7.3 6.4 6.3 6.8 7.1 6.9 6.7 6.2 6.0 8.3 6.6 9.3 8.6 9.4 9.6 9.5 8.7 8.5 8.5 7.8 7.9 7.1 6.7 6.6 7.0 6.9 6.9 7.2 7.2 7.3
9.4 9.5 9.2 9.2 9.3 9.5 9.4 9.4 9.5 9.5 9.5 9.6 9.6 9.6 9.3 8.7 8.8 7.9 6.6 6.2 7.0 7.2 6.9 6.9 6.7 8.1 8.3 7.8 9.5 9.0 8.9 9.5 9.5 9.1 8.1 8.7 8.4 7.6 7.5 6.5 7.4 7.2 6.5 6.5 6.7 7.0 6.6
9.2 9.2 9.3 9.3 9.2 9.2 8.4 8.6 9.2 9.4 9.4 9.6 9.5 9.4 9.3 9.2 8.2 7.7 6.8 5.4 6.7 7.3 7.0 7.1 6.9 9.4 7.5 8.5 9.0 8.7 9.7 9.3 9.6 9.3 8.5 8.7 8.1 7.8 7.4 7.6 7.0 6.5 6.5 6.5 6.5 6.5 6.8
9.2 9.5 9.3 9.2 9.3 8.7 8.3 8.5 9.3 8.8 9.2 9.3 9.6 9.4 9.4 9.3 8.2 8.1 7.0 5.5 5.0 6.6 7.4 7.2 8.1 8.6 7.2 7.1 7.8 9.3 9.7 8.7 9.0 9.2 9.2 8.9 7.8 7.3 7.2 6.5 6.5 6.5 6.5 6.5 6.5 6.5 6.5
9.2 9.3 9.3 9.0 9.2 8.9 8.5 8.8 8.7 8.6 8.5 8.8 9.3 9.3 8.3 8.2 7.8 7.6 7.9 6.5 4.4 6.6 7.7 7.7 8.7 7.6 8.3 7.7 8.8 9.2 9.6 9.2 8.5 8.4 8.0 7.8 7.4 6.5 6.5 6.5 6.5 6.5 6.5 6.5 6.5 6.5 6.5
9.0 9.1 9.1 9.0 9.2 9.1 8.6 8.2 8.9 8.4 8.8 8.5 9.3 8.7 7.8 7.6 7.8 7.9 7.7 6.0 6.1 6.5 6.9 7.5 7.4 7.5 8.0 8.8 9.4 8.7 9.3 8.7 8.4 7.7 6.5 6.9 6.5 6.5 6.5 6.5 6.5 6.5 6.5 6.5 6.5 6.5 6.5
9.3 9.5 9.4 9.2 9.2 8.5 8.3 8.8 8.5 8.8 8.5 8.5 9.0 8.5 8.2 8.4 7.8 8.0 7.7 7.2 6.8 7.0 6.7 8.2 8.2 8.1 8.6 8.8 7.5 8.2 9.2 7.4 7.0 6.5 6.5 6.5 6.5 6.5 6.5 6.5 6.5 6.5 6.5 6.5 6.5 6.5 6.5
9.2 9.3 9.1 9.2 8.8 8.9 8.4 8.4 8.4 8.5 8.4 8.9 8.6 8.1 8.0 8.1 8.1 7.1 7.8 6.9 6.7 5.9 6.7 7.2 8.0 7.9 8.0 8.4 7.3 7.6 8.4 7.6 6.5 6.5 6.5 6.5 6.5 6.5 6.5 6.5 6.5 6.5 6.5 6.5 6.5 6.5 6.5
9.2 9.2 9.3 9.3 9.1 8.7 8.5 8.6 8.8 8.4 8.4 8.7 9.4 7.9 7.6 8.0 7.7 8.6 8.6 7.6 6.2 5.4 6.5 6.5 6.8 7.5 8.0 8.0 6.7 8.5 8.6 7.6 6.6 6.5 6.5 6.5 6.6 6.5 6.5 6.5 6.5 6.5 6.5 6.5 6.5 6.5 6.5
9.2 9.3 8.4 8.4 8.9 8.5 8.8 9.2 8.9 8.6 9.1 9.4 9.2 8.6 7.6 7.8 7.2 7.2 8.1 6.1 5.1 6.6 6.5 6.5 6.7 8.8 8.1 7.1 7.3 7.3 8.7 7.6 6.5 6.5 6.5 6.5 6.5 6.5 6.5 6.5 6.5 6.5 6.5 6.5 6.5 6.5 6.5
9.4 8.4 8.2 8.5 8.7 9.1 9.1 8.5 9.2 9.2 9.5 8.7 8.4 8.1 8.0 7.0 8.1 7.9 7.9 6.5 5.5 6.5 6.5 6.5 6.7 6.5 6.5 6.8 6.9 7.4 7.3 7.9 7.5 6.5 6.5 6.5 7.0 6.5 6.5 6.5 6.5 6.5 6.5 6.5 6.5 6.5 6.5
9.3 8.2 8.5 8.9 9.2 9.2 8.5 9.2 9.2 9.3 9.2 8.6 8.0 7.6 7.7 7.7 8.2 9.5 7.3 6.9 6.5 6.5 6.5 6.5 6.5 6.5 6.5 6.5 6.5 6.5 6.5 6.5 6.5 6.5 6.5 6.5 6.5 6.5 6.7 6.5 6.5 6.5 6.5 6.5 6.5 6.5 6.5
9.3 8.4 8.7 9.1 9.0 8.8 8.6 9.1 9.3 9.4 8.7 8.4 7.5 7.7 7.7 9.2 8.5 8.0 6.4 6.5 6.5 6.5 6.5 6.5 6.5 6.5 6.5 6.5 6.5 6.5 6.5 6.5 6.5 6.5 6.5 6.5 6.5 6.5 6.5 6.5 6.5 6.5 6.5 6.5 6.5 6.5 6.5
9.2 8.4 8.4 8.6 8.6 8.9 8.9 9.0 9.5 9.2 8.8 8.0 7.8 8.0 7.9 7.9 7.3 7.5 6.7 6.5 6.5 6.5 6.5 6.5 6.5 6.5 6.5 6.5 6.5 6.5 6.5 6.5 6.5 6.5 6.5 6.5 6.5 6.5 6.5 6.5 6.5 6.5 6.5 6.5 6.5 6.5 6.5
9.0 8.2 8.4 8.4 8.5 9.0 8.8 9.1 9.4 9.3 8.8 7.9 7.3 6.9 7.2 7.8 7.8 6.9 6.6 6.5 6.5 6.5 6.5 6.5 6.5 6.5 6.5 6.5 6.5 6.5 6.5 6.5 6.5 6.5 6.5 6.5 6.5 6.5 6.5 6.6 6.5 6.5 6.5 6.5 6.5 6.5 6.5
8.9 8.4 8.5 8.9 8.5 9.2 8.8 9.4 9.4 9.0 8.7 7.6 6.6 6.8 6.2 7.0 8.2 7.2 6.5 6.5 6.5 7.0 6.8 6.5 6.5 6.5 6.5 6.5 6.5 6.5 6.5 6.5 6.5 6.5 6.5 6.5 6.5 6.5 6.5 6.5 6.5 6.5 6.5 6.5 6.5 6.5 6.5
9.0 8.4 8.2 8.7 8.7 9.3 8.6 9.4 9.4 8.9 8.1 6.7 6.8 6.5 7.0 8.7 6.5 6.6 6.5 6.5 6.5 6.5 7.0 6.5 6.5 6.5 6.5 6.5 6.5 6.5 6.5 6.5 6.9 6.6 6.5 6.5 6.5 6.5 6.5 6.5 6.5 6.5 6.5 6.5 6.5 6.5 6.5
9.1 9.2 8.3 8.4 9.1 8.6 9.0 8.8 9.2 8.5 7.8 6.4 6.7 6.3 7.6 6.6 6.5 6.5 6.5 6.5 6.6 6.5 6.5 6.5 6.5 6.5 6.5 6.5 6.5 6.5 6.5 6.7 7.0 6.5 6.5 6.5 6.5 6.5 6.5 6.5 6.5 6.5 6.5 6.5 6.5 6.5 6.5
9.4 9.2 8.7 8.7 8.9 9.3 9.2 8.6 8.9 7.9 7.6 6.8 6.7 6.5 6.8 6.8 7.5 6.5 6.5 6.5 6.5 6.9 6.5 6.6 6.5 6.5 6.5 6.5 6.5 6.5 6.5 6.5 6.9 6.7 6.5 6.7 6.5 6.5 6.5 6.5 6.5 6.5 6.5 6.5 6.5 6.5 6.5
9.3 9.3 9.2 9.1 8.7 9.3 9.0 8.6 8.6 7.7 7.3 6.7 6.6 6.6 6.9 6.5 6.5 6.5 6.5 6.5 6.5 6.5 6.6 6.8 6.5 6.5 6.5 6.5 6.5 6.5 6.5 6.5 6.6 6.7 6.6 6.5 6.5 6.5 6.5 6.5 6.5 6.5 6.5 6.5 6.5 6.5 6.5
9.3 9.3 9.2 9.3 9.2 9.3 8.7 8.6 8.5 7.9 7.0 6.9 6.8 6.7 6.7 6.7 6.9 6.5 6.5 6.5 6.5 6.5 6.5 6.5 6.5 6.5 6.5 6.5 6.5 6.5 6.5 6.5 6.5 6.5 6.5 6.5 6.5 6.5 6.5 6.5 6.5 6.5 6.5 6.5 6.5 6.5 6.5
9.3 9.3 9.3 9.3 8.7 9.1 8.8 8.6 8.6 8.1 7.9 6.8 6.1 6.6 6.6 6.7 6.5 6.5 6.5 6.5 6.5 6.5 6.7 6.8 6.5 6.5 6.5 6.5 6.8 7.0 7.0 6.9 6.6 6.5 6.5 6.5 6.5 6.5 6.5 6.5 6.5 6.5 6.5 6.5 6.5 6.5 6.5
9.3 9.4 9.4 9.4 8.5 9.2 9.2 9.1 8.6 8.0 8.2 6.4 6.6 6.2 6.9 6.5 6.5 6.5 6.5 6.5 6.5 6.5 6.5 6.7 7.0 6.5 7.0 8.0 7.8 7.4 7.2 6.9 6.7 6.5 6.6 6.5 6.5 6.5 6.5 6.5 6.5 6.5 6.5 6.5 6.5 6.5 6.5
9.3 9.2 9.4 9.3 9.2 8.7 8.8 8.8 8.5 8.0 8.2 5.9 5.9 6.3 6.7 6.5 6.6 6.5 6.5 6.5 6.8 6.9 6.6 6.6 7.0 7.6 8.1 7.3 6.5 6.5 6.5 6.5 6.5 6.5 6.5 6.5 6.5 6.5 6.5 6.5 6.5 6.5 6.5 6.5 6.5 6.5 6.5
9.2 9.1 8.2 9.3 8.4 8.6 8.8 8.7 8.1 7.6 8.4 6.5 5.9 5.9 6.3 6.6 6.6 7.2 6.6 6.8 6.5 6.5 6.5 6.7 7.7 7.4 7.7 6.5 6.5 6.5 6.5 6.5 6.5 6.5 6.5 6.5 6.5 6.5 6.5 6.5 6.5 6.5 6.5 6.7 6.5 6.5 6.5
9.1 9.0 7.4 7.6 7.5 7.5 8.9 8.6 9.0 8.3 7.6 7.5 6.3 5.9 5.4 6.8 7.7 7.6 6.6 6.7 7.2 6.8 6.5 6.7 6.9 6.9 7.3 6.5 6.5 6.5 6.5 6.5 6.5 6.5 6.5 6.5 6.5 6.5 6.5 6.5 6.5 6.5 6.5 6.8 6.5 6.5 6.6
9.1 9.2 7.4 7.2 7.6 7.1 7.6 9.4 9.4 9.3 7.7 8.1 7.3 6.0 5.7 6.5 5.5 8.1 8.1 7.3 7.3 7.1 6.5 6.9 6.7 6.8 6.5 6.5 6.5 6.5 6.5 6.5 6.5 6.5 6.5 6.5 6.5 6.5 6.5 6.5 6.5 6.6 6.6 6.5 6.5 7.0 7.0
9.2 9.1 8.8 7.1 7.5 7.8 7.9 9.1 9.4 9.3 9.2 8.2 7.4 6.6 6.4 5.7 5.3 7.2 8.1 7.3 7.7 8.1 7.4 7.3 6.8 6.7 6.8 6.5 6.5 6.5 6.5 6.5 6.5 6.5 6.5 6.5 6.5 6.5 6.5 6.5 6.5 7.0 6.8 7.3 7.4 7.1 7.2
Wind_Speed
19 20 20 19 21 21 21 21 22 21 23 23 23 22 22 24 25 26 21 18 16 14 11 9 6 5 4 8 7 8 3 6 10 14 15 13 14 13 11 10 9 13 16 12 12 14 14
19 20 20 22 24 23 23 22 22 23 23 25 23 23 22 24 23 25 22 22 18 15 13 9 5 4 8 12 4 3 3 4 10 18 15 12 7 7 6 6 10 1 10 13 13 15 15
20 21 20 22 23 25 23 24 23 24 24 24 27 24 22 23 24 23 21 22 20 16 14 10 7 6 9 11 2 2 4 4 4 14 16 9 3 4 7 5 8 9 13 14 17 18 15
21 22 24 24 24 25 24 25 25 25 26 25 25 23 23 25 26 24 21 24 16 19 17 13 8 5 6 3 5 4 5 6 4 8 7 9 5 4 5 4 4 6 10 11 5 7 12
23 24 24 25 26 27 26 25 23 25 24 26 25 23 26 24 26 22 18 25 26 18 18 14 7 7 5 6 5 11 8 9 8 8 7 9 6 4 3 9 8 11 9 13 9 8 7
24 26 26 27 28 30 28 27 25 25 24 25 26 24 23 21 22 19 18 22 23 16 14 7 2 4 7 6 6 6 10 9 11 13 10 7 6 6 10 11 7 9 14 10 10 5 8
25 28 28 30 30 30 29 27 25 25 24 25 22 23 19 17 19 17 11 4 5 5 11 8 12 2 7 7 8 9 14 14 11 13 8 9 7 12 16 15 15 5 9 10 9 7 15
27 30 30 30 33 30 28 26 25 26 24 23 22 21 20 20 18 23 9 2 10 6 8 11 5 8 4 8 6 11 15 11 13 13 11 6 12 16 11 10 11 12 13 15 14 12 12
28 31 29 30 31 29 28 27 26 26 24 22 22 21 16 20 21 15 12 10 10 7 4 15 11 13 8 8 7 16 16 13 16 16 16 10 4 11 13 11 10 12 13 13 15 16 17
27 29 29 30 28 29 28 26 26 23 24 25 23 13 17 20 14 8 11 6 7 5 5 11 11 8 7 6 5 14 15 9 6 14 13 11 7 5 11 13 12 12 9 11 12 10 7
28 29 28 30 31 29 27 27 25 24 23 24 21 22 14 18 8 6 7 10 8 1 6 15 11 9 13 10 14 11 14 3 10 10 7 4 7 13 11 12 9 7 3 4 6 10 12
30 29 30 28 29 27 27 26 25 25 25 24 23 25 26 10 9 11 6 12 4 4 4 6 6 12 16 14 7 10 10 5 2 6 11 9 2 5 9 6 11 3 4 6 7 4 7
31 29 28 28 28 27 26 26 27 26 26 27 29 33 23 7 5 10 8 3 2 5 11 8 9 14 17 12 11 13 13 11 8 5 9 11 14 7 9 9 7 9 2 2 4 5 7
29 29 27 27 27 26 26 26 26 25 27 29 33 26 9 5 7 14 3 4 7 8 7 7 12 17 9 17 10 14 14 12 14 11 4 8 6 19 14 15 6 13 11 5 6 8 12
27 28 28 27 26 26 26 27 27 24 27 29 22 9 2 6 9 7 3 3 2 12 12 12 17 11 7 17 7 13 14 11 14 14 7 6 4 3 7 8 12 6 9 15 12 18 12
27 28 27 27 26 27 27 28 27 26 28 29 7 6 3 10 12 4 1 1 2 8 16 18 7 6 8 18 10 13 13 13 11 18 12 1 3 6 7 4 9 9 4 2 4 5 10
29 28 28 27 25 26 26 29 27 29 30 29 1 1 3 5 5 3 1 2 7 18 7 3 9 9 9 14 11 14 16 5 17 15 16 6 4 5 4 10 13 9 10 6 8 9 5
28 28 27 26 25 25 27 29 29 31 33 9 1 1 5 6 3 1 1 2 11 10 0 4 6 5 15 16 9 12 10 2 8 9 13 10 1 5 12 9 8 14 15 16 7 10 8
27 30 27 25 25 25 27 28 30 33 34 3 2 2 2 3 3 4 1 2 5 3 1 3 4 2 9 13 6 6 8 4 10 12 11 10 5 3 3 4 11 11 17 18 19 16 22
26 26 26 24 24 26 27 28 30 33 33 4 2 2 1 2 3 9 4 8 6 4 7 8 9 10 10 12 2 8 6 4 9 11 8 6 5 7 8 10 6 6 14 17 17 10 19
25 25 26 24 23 24 26 27 30 32 31 4 3 2 1 1 3 10 2 4 9 4 3 3 4 3 4 4 5 4 6 6 6 7 5 5 4 9 17 22 21 20 23 23 20 20 17
24 25 24 23 22 23 25 25 28 29 25 2 3 3 5 2 6 12 4 6 6 4 2 2 3 5 3 3 2 3 5 6 6 10 10 4 3 4 16 21 21 20 22 18 19 19 19
22 23 23 23 23 23 24 23 25 27 18 2 1 2 3 2 5 6 4 7 6 4 4 4 3 4 2 1 4 4 3 2 2 4 11 5 3 3 5 10 19 9 4 8 11 13 10
22 21 22 22 22 23 23 23 24 25 21 2 1 2 3 2 7 5 5 5 7 4 3 3 0 2 3 6 5 4 7 9 10 11 8 4 4 2 6 10 3 2 5 8 10 14 9
19 20 20 20 21 21 21 22 22 23 25 2 2 3 3 1 5 4 7 4 7 5 2 3 1 4 2 2 3 3 2 1 8 14 10 11 4 3 3 6 15 6 3 4 4 7 12
17 18 18 20 22 22 23 23 23 23 23 6 1 3 2 3 5 3 5 6 5 4 4 2 2 2 2 2 1 1 2 3 2 4 3 8 9 4 2 3 4 5 9 3 1 2 15
15 16 16 17 18 21 21 21 21 20 23 10 1 3 2 3 2 6 6 6 4 5 1 1 2 1 2 1 2 2 4 1 3 3 6 4 3 5 6 4 8 7 5 1 2 7 13
16 15 14 15 17 18 20 20 21 20 20 11 3 2 2 3 7 5 7 4 3 5 3 4 3 3 2 2 1 2 3 2 3 5 4 6 5 4 4 5 6 3 5 7 6 7 7
17 15 14 14 16 16 19 20 20 19 20 16 3 2 1 4 4 7 5 5 5 2 1 4 3 3 1 2 2 2 2 3 4 3 3 4 6 3 5 3 7 5 9 8 5 7 6
Wind_Direction
356 352 343 349 346 343 340 338 338 335 333 329 330 321 318 317 322 327 319 277 224 226 232 229 236 267 240 224 251 124 222 197 203 200 202 197 200 211 211 204 210 234 255 244 259 263 256
349 344 341 340 337 338 332 330 330 327 329 326 324 319 324 320 314 319 322 313 224 213 215 219 212 257 238 237 65 137 252 217 208 191 202 202 233 231 262 215 215 277 268 270 256 257 250
344 335 336 330 323 323 324 325 325 324 324 322 322 318 315 314 314 313 319 310 226 207 205 197 191 221 243 227 33 188 239 255 226 189 191 195 176 207 208 224 228 264 264 264 248 241 235
327 328 330 329 323 319 325 319 319 319 317 318 318 318 314 317 315 307 316 321 266 200 196 186 189 211 249 61 257 210 208 197 165 153 189 161 145 268 256 76 205 239 242 255 132 228 230
340 331 327 321 319 325 318 310 320 317 310 312 314 314 311 312 313 302 312 313 317 202 188 170 183 220 240 123 206 212 203 187 162 140 136 156 158 194 162 225 226 218 256 218 248 197 248
334 328 325 326 321 324 319 320 327 316 312 310 312 313 311 307 312 312 313 317 290 188 191 149 10 189 209 209 152 174 198 182 164 142 125 156 198 226 215 215 225 237 220 254 257 157 235
333 332 333 327 324 325 326 328 322 315 312 313 313 314 311 315 319 321 336 334 170 172 196 174 177 140 136 115 149 180 174 176 169 168 168 181 214 218 231 226 253 285 297 274 273 279 284
334 331 334 332 325 331 331 322 323 315 314 312 314 308 307 318 312 316 308 252 283 353 176 216 191 151 150 170 139 167 173 170 181 186 167 145 227 233 258 267 250 255 264 267 279 286 297
338 336 331 330 333 331 327 326 324 319 314 314 312 308 322 315 310 296 233 218 280 15 205 181 176 174 166 191 165 173 193 195 194 202 193 193 217 227 231 227 241 246 259 273 279 304 295
332 329 334 335 333 332 330 328 325 321 316 316 317 314 310 318 298 307 242 223 224 76 176 155 194 194 171 192 191 165 196 163 192 207 188 231 198 193 214 231 234 258 277 282 285 292 274
332 333 338 333 333 332 331 331 327 324 320 324 320 316 283 291 293 271 322 104 102 69 179 144 147 142 162 180 127 176 185 169 183 184 173 185 223 207 228 232 233 247 16 288 297 291 305
334 338 337 336 337 337 337 335 331 328 328 327 320 310 303 269 243 253 97 116 65 202 158 134 136 171 160 192 152 143 168 231 249 205 219 256 85 211 224 211 217 77 225 251 246 268 257
336 340 342 342 340 342 341 339 335 333 332 330 324 311 304 239 207 175 146 172 182 252 153 145 169 164 161 172 155 174 177 177 171 167 218 232 219 212 234 214 194 205 176 249 223 208 247
340 342 343 342 342 344 341 341 338 338 333 329 324 319 306 197 201 140 99 124 231 126 129 165 140 153 164 161 182 177 180 194 217 219 160 203 204 196 195 215 187 208 207 219 262 253 292
340 342 341 345 346 344 344 342 342 339 335 339 327 338 356 135 89 133 114 167 225 140 129 141 136 148 141 186 144 180 190 196 203 205 210 191 242 216 161 199 212 161 215 245 290 280 275
339 343 342 346 349 346 346 344 342 342 340 345 330 335 337 120 129 85 90 239 335 110 138 147 132 179 156 178 173 186 184 204 207 207 217 228 244 183 183 208 229 212 343 180 211 273 273
340 346 345 350 350 345 350 350 342 340 339 334 298 354 133 143 123 173 134 311 111 129 126 176 144 151 157 173 186 182 185 143 197 191 201 201 230 132 141 204 205 199 231 220 290 241 269
340 347 347 349 350 350 351 351 344 341 338 326 72 40 153 173 76 294 246 347 128 143 263 98 128 158 153 164 165 181 177 86 190 188 192 197 198 251 243 242 224 250 220 227 234 232 232
342 344 351 350 349 352 355 353 347 345 345 335 52 3 249 268 143 157 272 112 117 136 62 141 119 128 150 159 166 192 190 111 174 179 170 167 215 284 233 204 233 237 243 246 244 263 253
342 346 351 353 353 356 357 355 352 349 351 355 117 98 303 260 293 154 192 131 108 42 69 86 106 127 135 161 28 170 153 157 186 199 67 191 224 233 272 311 333 241 249 252 249 255 266
345 345 353 357 356 357 357 358 356 353 354 4 10 39 9 166 223 153 107 96 130 130 74 73 115 151 143 153 171 166 158 143 173 197 182 226 241 257 265 273 279 272 270 269 260 256 254
343 350 356 356 358 358 359 1 359 358 354 51 23 352 335 223 183 153 156 148 95 72 30 79 139 146 146 152 86 171 193 203 211 178 200 211 259 276 280 269 263 269 272 273 271 265 258
345 353 358 358 359 1 360 2 3 4 5 18 329 258 255 185 184 166 148 155 154 152 63 51 89 139 184 24 351 305 221 301 12 180 201 199 202 270 261 327 305 267 261 262 265 257 259
347 354 357 357 359 359 360 1 6 6 7 335 311 296 312 148 193 187 155 157 151 194 94 98 39 181 37 57 334 246 229 241 237 227 210 215 183 229 293 309 278 221 294 279 282 288 341
344 350 355 355 355 356 356 358 9 5 3 10 323 327 323 240 205 161 177 151 121 151 157 104 108 43 23 298 286 287 184 209 241 238 217 210 166 278 276 299 277 309 332 292 332 309 355
343 344 352 356 354 354 357 358 359 0 1 358 8 338 310 294 210 172 168 166 150 162 183 161 92 358 255 283 233 286 266 356 190 133 196 193 206 210 313 311 289 298 13 355 258 267 9
336 336 347 352 353 349 350 349 350 355 358 353 312 14 285 287 306 226 193 186 196 214 71 78 158 169 311 233 264 245 258 9 262 222 177 173 196 228 245 265 279 274 344 349 341 330 341
325 328 338 346 346 347 343 344 343 350 351 350 297 86 10 307 283 295 224 195 178 217 181 121 166 197 148 194 187 222 254 310 285 269 217 204 190 204 192 230 274 28 303 338 342 314 317
316 320 326 335 335 339 337 339 342 340 343 351 315 340 271 237 282 319 307 315 320 349 263 177 349 114 92 120 223 274 296 303 296 280 225 248 228 323 221 253 323 306 282 313 318 297 302